Location: ??????????
(44.2167°N, 135.5333°E)
Time: 15:11:00
(UTC+00:00)

COSMOS 2455 - Pass Details

Date: 15 June 2025
Orbit: 899 x 909 km, 67.1° (Epoch: 16 July)

Event Time Altitude Azimuth Distance (km) Brightness Sun altitude
Rises 13:07:17 0° 319° (NW) 3,545 7.4 -17.8°
Reaches altitude 10° 13:10:07 10° 308° (NW) 2,600 6.2 -18.0°
Maximum altitude 13:15:06 28° 252° (WSW) 1,646 4.3 -18.4°
Enters shadow 13:18:37 16° 206° (SSW) 2,168 4.5 -18.7°
